TimePDT,TemperatureF,Dew PointF,Humidity,Sea Level PressureIn,VisibilityMPH,Wind Direction,Wind SpeedMPH,Gust SpeedMPH,PrecipitationIn,Events,Conditions,WindDirDegrees,DateUTC
12:56 AM,77.9,25.2,14,29.73,10.0,SSW,11.5,-,N/A,,Clear,210,2012-10-03 07:56:00
1:56 AM,75.9,26.1,16,29.74,10.0,SSW,12.7,-,N/A,,Clear,210,2012-10-03 08:56:00
2:56 AM,75.9,25.2,15,29.73,10.0,SSW,12.7,-,N/A,,Clear,210,2012-10-03 09:56:00
4:56 AM,73.9,26.1,17,29.74,10.0,South,11.5,-,N/A,,Clear,180,2012-10-03 11:56:00
5:56 AM,72.9,27.1,18,29.75,10.0,South,10.4,-,N/A,,Clear,180,2012-10-03 12:56:00
6:56 AM,74.8,30.0,19,29.78,10.0,South,11.5,-,N/A,,Clear,180,2012-10-03 13:56:00
7:56 AM,79.0,32.0,18,29.80,10.0,SSW,10.4,-,N/A,,Clear,200,2012-10-03 14:56:00
8:56 AM,82.9,32.0,16,29.82,10.0,WSW,10.4,-,N/A,,Clear,240,2012-10-03 15:56:00
9:56 AM,88.9,31.1,13,29.81,10.0,SW,16.1,-,N/A,,Clear,220,2012-10-03 16:56:00
10:56 AM,91.9,31.1,11,29.81,10.0,SW,15.0,-,N/A,,Clear,220,2012-10-03 17:56:00
11:56 AM,95.0,28.0,9,29.78,10.0,SW,17.3,-,N/A,,Clear,220,2012-10-03 18:56:00
12:56 PM,95.9,28.0,9,29.76,10.0,SW,17.3,-,N/A,,Clear,220,2012-10-03 19:56:00
1:56 PM,97.0,27.1,8,29.75,10.0,SSW,19.6,-,N/A,,Clear,210,2012-10-03 20:56:00
2:56 PM,97.0,26.1,8,29.74,10.0,SSW,20.7,-,N/A,,Clear,210,2012-10-03 21:56:00
3:56 PM,95.9,25.2,8,29.74,10.0,SW,19.6,-,N/A,,Clear,220,2012-10-03 22:56:00
4:56 PM,95.0,27.1,9,29.74,10.0,SW,13.8,-,N/A,,Clear,220,2012-10-03 23:56:00
5:56 PM,92.8,27.1,10,29.74,10.0,SW,12.7,-,N/A,,Clear,230,2012-10-04 00:56:00
6:56 PM,88.0,28.0,12,29.75,10.0,SSW,10.4,-,N/A,,Clear,210,2012-10-04 01:56:00
7:56 PM,82.9,27.1,13,29.77,10.0,South,11.5,-,N/A,,Clear,190,2012-10-04 02:56:00
8:56 PM,81.9,27.1,14,29.78,10.0,SSW,11.5,-,N/A,,Clear,210,2012-10-04 03:56:00
9:56 PM,81.9,28.0,14,29.78,10.0,South,16.1,-,N/A,,Clear,180,2012-10-04 04:56:00
10:56 PM,81.9,31.1,16,29.79,10.0,SSW,19.6,-,N/A,,Clear,200,2012-10-04 05:56:00
11:56 PM,77.9,31.1,18,29.80,10.0,SSW,16.1,-,N/A,,Clear,210,2012-10-04 06:56:00